Weather History for Ely, NV

Change the Weather History Date:

Sunday, September 25, 2011

  Actual Average Record
Temperature  
Mean Temperature 60 °F 53 °F  
Max Temperature 79 °F 72 °F 86 °F (2010)
Min Temperature 40 °F 34 °F 17 °F (1970)
Degree Days  
Heating Degree Days 5 12  
Month to date heating degree days 123 184  
Since 1 July heating degree days 127 248  
Cooling Degree Days 0 0  
Month to date cooling degree days 0 4  
Year to date cooling degree days 259 216  
Growing Degree Days 10 (Base 50)    
Moisture  
Dew Point 31 °F    
Average Humidity 39    
Maximum Humidity 65    
Minimum Humidity 13    
Precipitation  
Precipitation 0.00 in 0.03 in 0.55 in (1900)
Month to date precipitation 1.33 0.68  
Year to date precipitation 10.26 7.32  
Snow  
Snow 0.00 in 0.00 in 1.00 in (1986)
Month to date snowfall 0.0 0.2  
Since 1 July snowfall T 0.2  
Since 1 September snowfall 0.0 0.2  
Snow Depth 0.00 in    
Sea Level Pressure  
Sea Level Pressure 29.85 in    
Wind  
Wind Speed 11 mph (South)    
Max Wind Speed 28 mph    
Max Gust Speed 40 mph    
Visibility 10 miles    
Events      
T = Trace of Precipitation, MM = Missing Value Source: NWS Daily Summary

Daily Weather History Graph

Daily Weather History Graph

Search for Another Location

Airport:

Trip Planner

Search our weather history database for the weather conditions in past years. The results will help you decide how hot, cold, wet, or windy it might be!

Date:

Astronomy

Sep. 25, 2011 Rise Set
Actual Time 6:29 AM PDT 6:31 PM PDT
Civil Twilight 6:02 AM PDT 6:58 PM PDT
Nautical Twilight 5:31 AM PDT 7:29 PM PDT
Astronomical Twilight 4:59 AM PDT 8:01 PM PDT
Moon 4:22 AM PDT (9/25) 5:14 PM PDT (9/25)
Length of Visible Light 12h 55m
Length of Day
12h 02m
Waning Crescent, 4% of the Moon is Illuminated
Sep 25
Waning Crescent
Sep 27
New
Oct 3
First Quarter
Oct 11
Full
Oct 19
Last Quarter

Hourly Weather History & Observations

Time (PDT) Temp. Windchill Dew Point Humidity Pressure Visibility Wind Dir Wind Speed Gust Speed Precip Events Conditions
12:53 AM 50.0 °F - 30.9 °F 48% 29.88 in 10.0 mi SSE 10.4 mph - N/A   Clear
1:53 AM 46.9 °F - 30.9 °F 54% 29.89 in 10.0 mi SW 5.8 mph - N/A   Clear
2:53 AM 46.9 °F - 30.9 °F 54% 29.87 in 10.0 mi South 9.2 mph - N/A   Clear
3:53 AM 46.0 °F 40.2 °F 30.0 °F 54% 29.88 in 10.0 mi SSE 12.7 mph - N/A   Clear
4:53 AM 41.0 °F 35.8 °F 30.0 °F 65% 29.91 in 10.0 mi SSE 8.1 mph - N/A   Clear
5:53 AM 43.0 °F 38.2 °F 30.0 °F 60% 29.91 in 10.0 mi South 8.1 mph - N/A   Clear
6:53 AM 43.0 °F 36.8 °F 30.9 °F 62% 29.96 in 10.0 mi SSE 11.5 mph - N/A   Clear
7:53 AM 51.1 °F - 33.1 °F 50% 29.92 in 10.0 mi SSE 9.2 mph - N/A   Clear
8:53 AM 63.0 °F - 37.0 °F 38% 29.90 in 10.0 mi SSE 6.9 mph - N/A   Clear
9:53 AM 72.0 °F - 35.1 °F 26% 29.87 in 10.0 mi South 10.4 mph - N/A   Clear
10:53 AM 75.0 °F - 32.0 °F 21% 29.87 in 10.0 mi South 12.7 mph 23.0 mph N/A   Mostly Cloudy
11:53 AM 75.9 °F - 27.0 °F 16% 29.85 in 10.0 mi SSW 24.2 mph 34.5 mph N/A   Partly Cloudy
12:53 PM 77.0 °F - 25.0 °F 15% 29.83 in 10.0 mi South 19.6 mph 34.5 mph N/A   Clear
1:53 PM 78.1 °F - 25.0 °F 14% 29.81 in 10.0 mi SSW 12.7 mph 28.8 mph N/A   Clear
2:53 PM 75.0 °F - 28.9 °F 18% 29.81 in 10.0 mi South 18.4 mph 23.0 mph N/A   Clear
3:53 PM 75.9 °F - 28.0 °F 17% 29.79 in 10.0 mi South 15.0 mph 25.3 mph N/A   Partly Cloudy
4:53 PM 73.9 °F - 28.9 °F 19% 29.81 in 10.0 mi SSW 13.8 mph - N/A   Partly Cloudy
5:53 PM 72.0 °F - 30.9 °F 22% 29.81 in 10.0 mi SSW 10.4 mph - N/A   Mostly Cloudy
6:53 PM 69.1 °F - 30.9 °F 24% 29.82 in 10.0 mi South 5.8 mph - N/A   Scattered Clouds
7:53 PM 63.0 °F - 33.1 °F 33% 29.82 in 10.0 mi SSE 6.9 mph - N/A   Clear
8:53 PM 64.0 °F - 32.0 °F 30% 29.78 in 10.0 mi SSE 5.8 mph - N/A   Clear
9:53 PM 64.0 °F - 30.9 °F 29% 29.76 in 10.0 mi South 10.4 mph - N/A   Mostly Cloudy
10:53 PM 61.0 °F - 30.9 °F 32% 29.77 in 10.0 mi South 9.2 mph - N/A   Partly Cloudy
11:53 PM 57.9 °F - 30.9 °F 36% 29.81 in 10.0 mi NNE 5.8 mph - N/A   Partly Cloudy